SP5IZJ-2 Weather Reports


Display with metric or nautical units.
time (UTC)temp
F
wind
direction
speed
MPH
gust
MPH
rain 1hr
in
rain 24hr
in
rain mn
in
humidity
%
barometer
mb
20260831102839 80 0 1.0 5.0 0.00 0.00 0.00 56 1005.1
20260831102129 79 0 2.0 4.0 0.00 0.00 0.00 55 1005.1
20260831100814 79 0 6.0 10.0 0.00 0.00 0.00 53 1005.1
20260831100121 81 0 2.0 6.0 0.00 0.00 0.00 51 1005.2
20260831095415 83 0 0.0 7.0 0.00 0.00 0.00 50 1005.2
20260831094717 84 0 2.0 7.0 0.00 0.00 0.00 49 1005.2
20260831093930 87 0 2.0 10.0 0.00 0.00 0.00 45 1005.1
20260831093230 91 270 1.0 10.0 0.00 0.00 0.00 41 1005.1
20260831092543 89 0 1.0 7.0 0.00 0.00 0.00 48 1005.1
20260831091830 88 248 1.0 7.0 0.00 0.00 0.00 46 1005.2
20260831091206 89 248 0.0 0.0 0.00 0.00 0.00 47 1005.2
20260831085731 91 359 0.0 0.0 0.00 0.00 0.00 47 1005.3
20260831085031 90 359 0.0 0.0 0.00 0.00 0.00 47 1005.4
20260831084334 90 248 0.0 0.0 0.00 0.00 0.00 46 1005.4
20260831083630 90 248 0.0 0.0 0.00 0.00 0.00 47 1005.5
20260831082943 89 248 0.0 0.0 0.00 0.00 0.00 47 1005.4
20260831082233 89 0 0.0 0.0 0.00 0.00 0.00 49 1005.5
20260831081531 88 270 0.0 0.0 0.00 0.00 0.00 50 1005.7
20260831080831 87 270 0.0 0.0 0.00 0.00 0.00 52 1005.8
20260831080131 86 270 0.0 0.0 0.00 0.00 0.00 55 1005.7
20260831075438 84 359 0.0 0.0 0.00 0.00 0.00 58 1005.6
20260831074035 81 293 0.0 0.0 0.00 0.00 0.00 64 1005.5
20260831073340 78 270 0.0 0.0 0.00 0.00 0.00 69 1005.5
20260831072642 75 0 0.0 0.0 0.00 0.00 0.00 73 1005.7
20260831072053 73 359 0.0 0.0 0.00 0.00 0.00 72 1005.9
20260831071232 72 0 0.0 0.0 0.00 0.00 0.00 74 1006.0
20260831070637 71 0 0.0 0.0 0.00 0.00 0.00 75 1005.8
20260831070506 70 0 0.0 0.0 0.00 0.00 0.00 75 1005.8
20260831070423 70 0 0.0 0.0 0.00 0.00 0.00 75 1005.8
20260831070138 70 0 0.0 0.0 0.00 0.00 0.00 75 1005.9
20260831065836 70 0 0.0 0.0 0.00 0.00 0.00 76 1005.8
20260831065733 69 0 0.0 0.0 0.00 0.00 0.00 77 1006.0
20260831065133 70 0 0.0 0.0 0.00 0.00 0.00 75 1005.9
20260831064433 70 0 0.0 0.0 0.00 0.00 0.00 76 1005.8
20260831063937 68 0 0.0 0.0 0.00 0.00 0.00 77 1005.9
20260831060938 68 0 0.0 0.0 0.00 0.00 0.00 77 1005.9
20260831060456 67 0 0.0 0.0 0.00 0.00 0.00 77 1006.1
20260831060234 67 0 0.0 0.0 0.00 0.00 0.00 77 1006.1
20260831055647 68 0 0.0 0.0 0.00 0.00 0.00 76 1005.9
20260831054838 68 0 0.0 0.0 0.00 0.00 0.00 75 1006.0
20260831054145 69 0 0.0 0.0 0.00 0.00 0.00 76 1006.0
20260831052747 67 0 0.0 0.0 0.00 0.00 0.00 81 1006.1
20260831052234 66 0 0.0 0.0 0.00 0.00 0.00 85 1006.1
20260831052035 66 0 0.0 0.0 0.00 0.00 0.00 85 1006.1
20260831051341 64 0 0.0 0.0 0.00 0.00 0.00 89 1006.0
20260831050642 61 0 0.0 0.0 0.00 0.00 0.00 91 1006.2
20260831045951 59 0 0.0 0.0 0.00 0.00 0.00 90 1006.3
20260831045257 58 0 0.0 0.0 0.00 0.00 0.00 89 1006.3
20260831044551 57 0 0.0 0.0 0.00 0.00 0.00 89 1006.3
20260831043839 57 0 0.0 0.0 0.00 0.00 0.00 89 1006.3
20260831042444 57 0 0.0 0.0 0.00 0.00 0.00 89 1006.0
20260831041806 57 0 0.0 0.0 0.00 0.00 0.00 88 1006.1
20260831041145 56 0 0.0 0.0 0.00 0.00 0.00 88 1006.0
20260831035637 57 0 0.0 0.0 0.00 0.00 0.00 88 1006.3
20260831034944 57 0 0.0 0.0 0.00 0.00 0.00 88 1006.4
20260831032840 58 0 0.0 0.0 0.00 0.00 0.00 89 1006.1
20260831032138 58 0 0.0 0.0 0.00 0.00 0.00 89 1006.1
20260831031459 58 0 0.0 0.0 0.00 0.00 0.00 88 1006.0
20260831030738 58 0 0.0 0.0 0.00 0.00 0.00 88 1006.1
20260831030048 57 0 0.0 0.0 0.00 0.00 0.00 88 1006.3
20260831025339 57 0 0.0 0.0 0.00 0.00 0.00 88 1006.3
20260831024641 57 0 0.0 0.0 0.00 0.00 0.00 88 1006.3
20260831023939 57 0 0.0 0.0 0.00 0.00 0.00 87 1006.1
20260831023242 57 0 0.0 0.0 0.00 0.00 0.00 87 1006.0
20260831021840 57 0 0.0 0.0 0.00 0.00 0.00 87 1006.4
20260831021140 58 0 0.0 0.0 0.00 0.00 0.00 87 1006.2
20260831020446 58 0 0.0 0.0 0.00 0.00 0.00 87 1006.2
20260831015744 58 0 0.0 0.0 0.00 0.00 0.00 86 1006.2
20260831015044 58 0 0.0 0.0 0.00 0.00 0.00 86 1006.3
20260831014344 58 359 0.0 0.0 0.00 0.00 0.00 85 1006.3
20260831013641 212 359 0.0 0.0 0.00 0.00 0.00 100
20260831012948 58 0 0.0 0.0 0.00 0.00 0.00 85 1006.2
20260831012245 58 0 0.0 0.0 0.00 0.00 0.00 84 1006.1
20260831011552 59 0 0.0 0.0 0.00 0.00 0.00 84 1006.0
20260831010841 59 0 0.0 0.0 0.00 0.00 0.00 84 1006.0
20260831010219 59 0 0.0 0.0 0.00 0.00 0.00 83 1006.1
20260831005443 59 0 0.0 0.0 0.00 0.00 0.00 83 1006.0
20260831004742 59 0 0.0 0.0 0.00 0.00 0.00 83 1006.2
20260831004102 59 0 0.0 0.0 0.00 0.00 0.00 83 1006.4
20260831002642 60 0 0.0 0.0 0.00 0.00 0.00 83 1006.3
20260831001943 60 0 0.0 0.0 0.00 0.00 0.00 82 1006.3
20260831001247 60 0 0.0 0.0 0.00 0.00 0.00 82 1006.2
20260831000545 60 0 0.0 0.0 0.00 0.00 0.00 82 1006.3
20260830235846 60 0 0.0 0.0 0.00 0.00 0.00 82 1006.2
20260830235145 60 0 0.0 0.0 0.00 0.00 0.00 82 1006.3
20260830234446 60 0 0.0 0.0 0.00 0.00 0.00 81 1006.3
20260830233749 60 0 0.0 0.0 0.00 0.00 0.00 81 1006.4
20260830233046 60 0 0.0 0.0 0.00 0.00 0.00 81 1006.3
20260830232345 60 0 0.0 0.0 0.00 0.00 0.00 81 1006.3
20260830231649 60 0 0.0 0.0 0.00 0.00 0.00 81 1006.3
20260830230944 60 0 0.0 0.0 0.00 0.00 0.00 81 1006.2
20260830230248 61 0 0.0 0.0 0.00 0.00 0.00 81 1006.3
20260830225610 61 0 0.0 0.0 0.00 0.00 0.00 80 1006.4
20260830224904 61 0 0.0 0.0 0.00 0.00 0.00 80 1006.4
20260830224147 61 0 0.0 0.0 0.00 0.00 0.00 80 1006.3
20260830223447 60 0 0.0 0.0 0.00 0.00 0.00 79 1006.2
20260830222747 61 0 0.0 0.0 0.00 0.00 0.00 79 1006.1
20260830221347 62 0 0.0 0.0 0.00 0.00 0.00 78 1006.3
20260830220647 62 0 0.0 0.0 0.00 0.00 0.00 77 1006.3
20260830215949 62 0 0.0 0.0 0.00 0.00 0.00 77 1006.2
20260830215246 63 0 0.0 0.0 0.00 0.00 0.00 78 1006.3
20260830214546 63 0 0.0 0.0 0.00 0.00 0.00 78 1006.3
20260830213859 63 0 0.0 0.0 0.00 0.00 0.00 78 1006.1
20260830213147 63 0 0.0 0.0 0.00 0.00 0.00 78 1006.1
20260830212510 63 0 0.0 0.0 0.00 0.00 0.00 79 1006.0
20260830211751 63 0 0.0 0.0 0.00 0.00 0.00 79 1006.0
20260830211059 63 0 0.0 0.0 0.00 0.00 0.00 79 1006.0
20260830210347 63 0 0.0 0.0 0.00 0.00 0.00 79 1006.1
20260830205648 62 0 0.0 0.0 0.00 0.00 0.00 79 1006.0
20260830205024 63 0 0.0 0.0 0.00 0.00 0.00 79 1005.9
20260830204248 63 0 0.0 0.0 0.00 0.00 0.00 79 1005.8
20260830202852 63 0 0.0 0.0 0.00 0.00 0.00 79 1005.8
20260830202151 63 0 0.0 0.0 0.00 0.00 0.00 78 1005.8
20260830201523 64 0 0.0 0.0 0.00 0.00 0.00 78 1005.8
20260830200809 64 0 0.0 0.0 0.00 0.00 0.00 78 1005.6
20260830200131 64 0 0.0 0.0 0.00 0.00 0.00 79 1005.6
20260830195349 65 0 0.0 0.0 0.00 0.00 0.00 79 1005.6
20260830194653 65 0 0.0 0.0 0.00 0.00 0.00 79 1005.5
20260830192616 65 0 0.0 0.0 0.00 0.00 0.00 79 1005.6
20260830191209 65 0 0.0 0.0 0.00 0.00 0.00 79 1005.4
20260830190500 64 0 0.0 0.0 0.00 0.00 0.00 79 1005.4
20260830185751 64 0 0.0 0.0 0.00 0.00 0.00 78 1005.6
20260830185108 64 0 0.0 0.0 0.00 0.00 0.00 77 1005.6
20260830184355 65 0 0.0 0.0 0.00 0.00 0.00 77 1005.4
20260830183701 65 0 0.0 0.0 0.00 0.00 0.00 77 1005.4
20260830183039 65 0 0.0 0.0 0.00 0.00 0.00 77 1005.5
20260830181600 65 0 0.0 0.0 0.00 0.00 0.00 76 1005.3
20260830180852 66 0 0.0 0.0 0.00 0.00 0.00 75 1005.3
20260830180158 66 0 0.0 0.0 0.00 0.00 0.00 74 1005.2
20260830175507 66 0 0.0 0.0 0.00 0.00 0.00 73 1005.3
20260830174803 67 0 0.0 0.0 0.00 0.00 0.00 72 1005.1
20260830173443 68 0 0.0 0.0 0.00 0.00 0.00 69 1005.2
20260830172657 70 0 0.0 0.0 0.00 0.00 0.00 67 1005.1
20260830172007 71 0 0.0 0.0 0.00 0.00 0.00 65 1005.2
20260830171303 73 0 0.0 0.0 0.00 0.00 0.00 62 1005.1
20260830170604 76 0 0.0 0.0 0.00 0.00 0.00 58 1005.0
20260830165853 79 0 0.0 0.0 0.00 0.00 0.00 55 1005.0
20260830165223 82 0 0.0 0.0 0.00 0.00 0.00 52 1004.9
20260830164513 84 0 0.0 0.0 0.00 0.00 0.00 49 1005.0
20260830163756 86 0 0.0 0.0 0.00 0.00 0.00 48 1005.0
20260830163056 84 0 0.0 0.0 0.00 0.00 0.00 50 1004.9
20260830162401 84 0 0.0 0.0 0.00 0.00 0.00 48 1005.0
20260830161701 86 0 0.0 0.0 0.00 0.00 0.00 47 1005.0
20260830160958 82 0 0.0 2.0 0.00 0.00 0.00 48 1005.0
20260830160303 84 0 0.0 2.0 0.00 0.00 0.00 46 1005.1
20260830155557 86 0 0.0 0.0 0.00 0.00 0.00 45 1005.2
20260830154903 85 0 0.0 3.0 0.00 0.00 0.00 46 1005.2
20260830154210 85 0 0.0 0.0 0.00 0.00 0.00 44 1005.2
20260830153509 85 0 0.0 0.0 0.00 0.00 0.00 47 1005.3
20260830152800 83 0 0.0 0.0 0.00 0.00 0.00 46 1005.2
20260830152058 84 0 0.0 2.0 0.00 0.00 0.00 44 1005.2
20260830151356 87 0 0.0 3.0 0.00 0.00 0.00 41 1005.3
20260830150656 85 0 0.0 2.0 0.00 0.00 0.00 43 1005.3
20260830150021 85 0 0.0 0.0 0.00 0.00 0.00 43 1005.4
20260830145257 85 0 0.0 2.0 0.00 0.00 0.00 42 1005.4
20260830144600 84 0 3.0 9.0 0.00 0.00 0.00 41 1005.6
20260830143201 91 0 1.0 10.0 0.00 0.00 0.00 37 1005.6
20260830142505 89 0 4.0 8.0 0.00 0.00 0.00 38 1005.7
20260830141758 89 0 4.0 10.0 0.00 0.00 0.00 36 1005.6
20260830141102 89 0 3.0 13.0 0.00 0.00 0.00 37 1005.7
20260830140400 91 0 5.0 14.0 0.00 0.00 0.00 35 1005.7
20260830135658 93 248 0.0 0.0 0.00 0.00 0.00 36 1005.8
20260830134301 89 0 4.0 12.0 0.00 0.00 0.00 40 1005.9
20260830133559 85 0 7.0 16.0 0.00 0.00 0.00 40 1005.7
20260830132905 88 0 4.0 11.0 0.00 0.00 0.00 37 1005.8
20260830132211 88 359 0.0 0.0 0.00 0.00 0.00 38 1005.9
20260830131503 87 270 4.0 14.0 0.00 0.00 0.00 42 1005.9
20260830130802 86 0 5.0 13.0 0.00 0.00 0.00 40 1006.0
20260830130107 87 0 4.0 13.0 0.00 0.00 0.00 39 1006.0
20260830125400 87 0 3.0 10.0 0.00 0.00 0.00 40 1006.1
20260830124702 86 0 4.0 13.0 0.00 0.00 0.00 39 1006.2
20260830124010 85 0 4.0 11.0 0.00 0.00 0.00 42 1006.4
20260830122613 83 0 7.0 13.0 0.00 0.00 0.00 43 1006.4
20260830121903 83 0 8.0 15.0 0.00 0.00 0.00 41 1006.5
20260830121203 83 0 8.0 13.0 0.00 0.00 0.00 42 1006.4
20260830114404 83 0 4.0 12.0 0.00 0.00 0.00 46 1006.5
20260830110206 82 0 2.0 10.0 0.00 0.00 0.00 46 1006.9
20260830104105 82 248 2.0 9.0 0.00 0.00 0.00 47 1007.2
20260830103410 82 248 2.0 13.0 0.00 0.00 0.00 51 1007.3